Weather History for Glencoe, MN

Change the Weather History Date:

Tuesday, August 27, 2013

  Actual Average (KHCD) Record (KHCD)
Temperature  
Mean Temperature 82 °F -  
Max Temperature 92 °F 80 °F 93 °F (1973)
Min Temperature 73 °F 58 °F 41 °F (1986)
Cooling Degree Days 17    
Growing Degree Days 32 (Base 50)    
Moisture  
Dew Point 72 °F    
Average Humidity 71    
Maximum Humidity 86    
Minimum Humidity 54    
Precipitation  
Precipitation 0.00 in - - ()
Sea Level Pressure  
Sea Level Pressure 29.84 in    
Wind  
Wind Speed 2 mph (NNW)    
Max Wind Speed 7 mph    
Max Gust Speed -    
Visibility 10 miles    
Events      
Averages and records for this station are not official NWS values.
T = Trace of Precipitation, MM = Missing Value Source: NWS Daily Summary

Daily Weather History Graph

Daily Weather History Graph

Search for Another Location

Airport:

Trip Planner

Search our weather history database for the weather conditions in past years. The results will help you decide how hot, cold, wet, or windy it might be!

Date:

Astronomy

Aug. 27, 2013 Rise Set
Actual Time 6:33 AM CDT 8:01 PM CDT
Civil Twilight 6:02 AM CDT 8:32 PM CDT
Nautical Twilight 5:25 AM CDT 9:08 PM CDT
Astronomical Twilight 4:45 AM CDT 9:48 PM CDT
Moon 11:36 PM CDT (8/27) 1:50 PM CDT (8/27)
Length of Visible Light 14h 29m
Length of Day
13h 28m
Waning Gibbous, 57% of the Moon is Illuminated
Aug 27
Waning Gibbous
Aug 28
Last Quarter
Sep 5
New
Sep 12
First Quarter
Sep 19
Full

Hourly Weather History & Observations

Time (CDT) Temp. Heat Index Dew Point Humidity Pressure Visibility Wind Dir Wind Speed Gust Speed Precip Events Conditions
12:14 AM 79.3 °F - 72.5 °F 79% 29.85 in 10.0 mi South 3.5 mph - N/A   Clear
12:34 AM 79.0 °F - 72.5 °F 80% 29.85 in 10.0 mi Calm Calm - N/A   Clear
12:54 AM 78.4 °F - 72.1 °F 81% 29.85 in 10.0 mi Calm Calm - N/A   Clear
1:14 AM 78.3 °F - 72.0 °F 81% 29.85 in 10.0 mi Calm Calm - N/A   Clear
1:34 AM 77.2 °F - 71.6 °F 83% 29.85 in 10.0 mi Calm Calm - N/A   Clear
1:54 AM 77.0 °F - 71.6 °F 83% 29.83 in 10.0 mi Calm Calm - N/A   Clear
2:14 AM 77.2 °F - 71.6 °F 83% 29.82 in 10.0 mi South 4.6 mph - N/A   Clear
2:34 AM 77.0 °F - 71.6 °F 83% 29.82 in 10.0 mi South 3.5 mph - N/A   Clear
2:54 AM 77.0 °F - 71.2 °F 82% 29.82 in 10.0 mi Calm Calm - N/A   Clear
3:14 AM 76.3 °F - 70.9 °F 83% 29.82 in 10.0 mi Calm Calm - N/A   Clear
3:34 AM 75.7 °F - 70.7 °F 84% 29.82 in 10.0 mi Calm Calm - N/A   Clear
3:53 AM 74.8 °F - 69.8 °F 84% 29.82 in 10.0 mi Calm Calm - N/A   Clear
4:14 AM 74.3 °F - 70.0 °F 86% 29.81 in 7.0 mi Calm Calm - N/A   Clear
4:34 AM 73.4 °F - 69.1 °F 86% 29.81 in 7.0 mi Calm Calm - N/A   Clear
4:54 AM 73.8 °F - 69.4 °F 86% 29.81 in 10.0 mi Calm Calm - N/A   Clear
5:14 AM 73.6 °F - 69.1 °F 86% 29.81 in 10.0 mi Calm Calm - N/A   Clear
5:34 AM 74.1 °F - 69.6 °F 86% 29.81 in 10.0 mi Calm Calm - N/A   Clear
5:54 AM 74.3 °F - 69.4 °F 85% 29.81 in 10.0 mi Calm Calm - N/A   Clear
6:14 AM 74.3 °F - 69.3 °F 84% 29.81 in 10.0 mi South 5.8 mph - N/A   Clear
6:33 AM 74.7 °F - 69.1 °F 83% 29.80 in 10.0 mi South 5.8 mph - N/A   Clear
6:54 AM 74.8 °F - 68.9 °F 82% 29.81 in 10.0 mi South 5.8 mph - N/A   Clear
7:14 AM 75.2 °F - 68.9 °F 81% 29.81 in 10.0 mi South 4.6 mph - N/A   Clear
7:34 AM 75.6 °F - 68.9 °F 80% 29.82 in 10.0 mi South 4.6 mph - N/A   Clear
7:54 AM 76.3 °F - 69.1 °F 78% 29.82 in 10.0 mi SSW 3.5 mph - N/A   Clear
8:14 AM 77.2 °F - 69.6 °F 77% 29.82 in 10.0 mi South 3.5 mph - N/A   Clear
8:34 AM 78.8 °F - 69.6 °F 73% 29.83 in 10.0 mi SSW 4.6 mph - N/A   Clear
8:53 AM 79.9 °F - 69.4 °F 70% 29.83 in 10.0 mi SW 3.5 mph - N/A   Clear
9:14 AM 81.7 °F 85.1 °F 69.4 °F 66% 29.83 in 10.0 mi SSW 4.6 mph - N/A   Clear
9:34 AM 82.8 °F 86.2 °F 68.9 °F 63% 29.83 in 10.0 mi SW 4.6 mph - N/A   Clear
9:54 AM 82.9 °F 86.3 °F 68.9 °F 62% 29.83 in 10.0 mi SSW 4.6 mph - N/A   Clear
10:13 AM 83.8 °F 87.5 °F 69.1 °F 61% 29.83 in 10.0 mi West 5.8 mph - N/A   Clear
10:34 AM 85.3 °F 89.4 °F 69.6 °F 59% 29.83 in 10.0 mi SSW 3.5 mph - N/A   Clear
10:54 AM 86.0 °F 90.7 °F 70.0 °F 59% 29.83 in 10.0 mi SW 3.5 mph - N/A   Clear
11:14 AM 86.9 °F 91.7 °F 70.2 °F 57% 29.83 in 10.0 mi Calm Calm - N/A   Clear
11:34 AM 87.1 °F 92.0 °F 70.3 °F 57% 29.83 in 10.0 mi North 3.5 mph - N/A   Clear
11:54 AM 87.8 °F 93.4 °F 70.9 °F 57% 29.83 in 10.0 mi Calm Calm - N/A   Clear
12:14 PM 88.9 °F 95.1 °F 71.2 °F 56% 29.83 in 10.0 mi NNE 3.5 mph - N/A   Clear
12:34 PM 89.1 °F 96.0 °F 72.1 °F 57% 29.83 in 10.0 mi Calm Calm - N/A   Clear
12:54 PM 88.5 °F 95.8 °F 72.7 °F 59% 29.83 in 10.0 mi ENE 3.5 mph - N/A   Clear
1:14 PM 88.9 °F 96.6 °F 73.0 °F 59% 29.83 in 10.0 mi NNW 5.8 mph - N/A   Clear
1:34 PM 90.3 °F 98.7 °F 73.0 °F 57% 29.83 in 10.0 mi Calm Calm - N/A   Mostly Cloudy
1:53 PM 90.5 °F 99.2 °F 73.2 °F 57% 29.83 in 10.0 mi NNW 6.9 mph - N/A   Mostly Cloudy
2:14 PM 91.0 °F 99.8 °F 73.2 °F 56% 29.83 in 10.0 mi Calm Calm - N/A   Mostly Cloudy
2:34 PM 91.4 °F 99.5 °F 72.5 °F 54% 29.83 in 10.0 mi Calm Calm - N/A   Scattered Clouds
2:54 PM 89.6 °F 98.2 °F 73.6 °F 59% 29.83 in 10.0 mi North 4.6 mph - N/A   Mostly Cloudy
3:14 PM 90.1 °F 101.2 °F 75.4 °F 62% 29.83 in 10.0 mi NNE 6.9 mph - N/A   Scattered Clouds
3:34 PM 91.9 °F 103.9 °F 75.7 °F 59% 29.83 in 10.0 mi NNW 6.9 mph - N/A   Scattered Clouds
3:54 PM 89.1 °F 99.6 °F 75.6 °F 64% 29.83 in 10.0 mi North 6.9 mph - N/A   Overcast
4:14 PM 89.6 °F 100.4 °F 75.4 °F 63% 29.83 in 10.0 mi NNE 6.9 mph - N/A   Scattered Clouds
4:33 PM 90.9 °F 101.8 °F 75.4 °F 60% 29.83 in 10.0 mi North 5.8 mph - N/A   Scattered Clouds
4:54 PM 89.6 °F 99.8 °F 75.0 °F 62% 29.84 in 10.0 mi North 4.6 mph - N/A   Scattered Clouds
5:14 PM 90.1 °F 101.2 °F 75.4 °F 62% 29.84 in 10.0 mi Calm Calm - N/A   Mostly Cloudy
5:34 PM 89.2 °F 100.1 °F 75.7 °F 64% 29.85 in 10.0 mi Calm Calm - N/A   Mostly Cloudy
5:54 PM 89.6 °F 101.0 °F 75.9 °F 64% 29.85 in 10.0 mi NNE 3.5 mph - N/A   Mostly Cloudy
6:14 PM 89.4 °F 100.0 °F 75.4 °F 63% 29.85 in 10.0 mi North 6.9 mph - N/A   Scattered Clouds
6:34 PM 88.7 °F 99.3 °F 75.7 °F 65% 29.85 in 10.0 mi Calm Calm - N/A   Clear
6:54 PM 88.2 °F 99.5 °F 76.3 °F 68% 29.85 in 10.0 mi North 3.5 mph - N/A   Clear
7:14 PM 87.3 °F 97.2 °F 75.7 °F 68% 29.86 in 10.0 mi North 4.6 mph - N/A   Clear
7:34 PM 86.2 °F 95.5 °F 75.2 °F 70% 29.86 in 10.0 mi North 3.5 mph - N/A   Clear
7:54 PM 85.5 °F 93.8 °F 74.8 °F 70% 29.86 in 10.0 mi Calm Calm - N/A   Clear
8:13 PM 84.4 °F 92.4 °F 75.0 °F 73% 29.87 in 10.0 mi Calm Calm - N/A   Clear
8:34 PM 83.8 °F 91.4 °F 74.7 °F 74% 29.88 in 10.0 mi Calm Calm - N/A   Scattered Clouds
8:54 PM 83.3 °F 90.2 °F 74.3 °F 74% 29.89 in 10.0 mi Calm Calm - N/A   Scattered Clouds
9:14 PM 82.9 °F 89.7 °F 74.3 °F 75% 29.90 in 10.0 mi Calm Calm - N/A   Scattered Clouds
9:33 PM 82.0 °F 87.7 °F 73.4 °F 75% 29.90 in 10.0 mi Calm Calm - N/A   Clear
9:54 PM 81.5 °F 86.3 °F 72.5 °F 74% 29.90 in 10.0 mi Calm Calm - N/A   Clear
10:14 PM 80.8 °F 84.9 °F 72.0 °F 74% 29.91 in 10.0 mi NNE 4.6 mph - N/A   Clear
10:34 PM 80.1 °F 83.8 °F 71.8 °F 76% 29.92 in 10.0 mi NNE 4.6 mph - N/A   Clear
10:54 PM 79.2 °F - 71.2 °F 77% 29.93 in 10.0 mi NNE 4.6 mph - N/A   Clear
11:14 PM 78.3 °F - 70.9 °F 78% 29.93 in 10.0 mi North 4.6 mph - N/A   Clear
11:34 PM 77.9 °F - 70.7 °F 78% 29.93 in 10.0 mi NNE 3.5 mph - N/A   Clear